EW0867 Weather Reports


Display with metric or nautical units.
time (UTC)temp
F
wind
direction
speed
MPH
gust
MPH
rain 1hr
in
rain 24hr
in
rain mn
in
humidity
%
barometer
mb
20260506213509 57 352 0.0 0.0 0.04 1.73 0.32 79 1010.6
20260506213010 57 353 0.0 0.0 0.04 1.73 0.32 80 1010.6
20260506212532 57 345 0.0 0.0 0.04 1.73 0.32 80 1010.6
20260506212011 57 344 0.0 0.0 0.04 1.69 0.31 80 1010.5
20260506211454 57 344 0.0 0.0 0.04 1.69 0.31 80 1010.5
20260506211000 57 344 0.0 0.0 0.04 1.69 0.31 80 1010.4
20260506210502 57 342 0.0 0.0 0.04 1.69 0.31 80 1010.4
20260506210005 57 342 0.0 0.0 0.04 1.69 0.31 79 1010.4
20260506205511 57 342 0.0 0.0 0.08 1.93 0.31 79 1010.4
20260506205012 57 342 0.0 0.0 0.08 1.93 0.31 79 1010.4
20260506204516 57 342 0.0 0.0 0.08 1.93 0.31 79 1010.2
20260506204017 57 341 0.0 0.0 0.08 1.93 0.31 79 1010.2
20260506203541 58 339 0.0 0.0 0.08 1.93 0.31 79 1010.2
20260506203021 58 339 0.0 0.0 0.08 1.93 0.31 78 1010.2
20260506202521 58 337 0.0 0.0 0.08 1.93 0.31 78 1010.3
20260506202002 58 338 0.0 0.0 0.04 1.89 0.31 77 1010.3
20260506201507 58 339 0.0 0.0 0.04 1.89 0.31 77 1010.1
20260506201011 58 7 0.0 0.0 0.04 1.89 0.31 76 1010.0
20260506200513 58 360 0.0 0.0 0.04 1.89 0.31 76 1010.1
20260506200013 59 342 0.0 0.0 0.08 1.89 0.31 75 1010.1
20260506195518 59 335 0.0 4.0 0.04 1.97 0.30 74 1010.0
20260506195038 59 348 0.0 4.0 0.04 1.97 0.30 73 1010.0
20260506194518 59 338 0.0 0.0 0.04 1.97 0.30 73 1009.8
20260506194018 59 24 0.0 0.0 0.04 1.97 0.30 73 1009.7
20260506193520 59 353 0.0 0.0 0.08 1.97 0.30 74 1009.6
20260506190917 59 79 0.0 0.0 0.08 1.97 0.30 77 1009.0
20260506184415 58 360 0.0 6.0 0.08 1.93 0.29 80 1008.9
20260506183923 58 335 0.0 6.0 0.08 1.93 0.29 81 1008.9
20260506183428 59 349 0.0 6.0 0.04 1.89 0.28 81 1008.9
20260506175942 60 5 0.0 0.0 0.08 1.89 0.28 76 1008.4
20260506175505 60 2 0.0 0.0 0.04 1.89 0.28 76 1008.5
20260506174944 60 2 0.0 0.0 0.08 1.89 0.28 76 1008.4
20260506174430 60 357 0.0 0.0 0.08 1.89 0.28 76 1008.2
20260506173930 60 356 0.0 0.0 0.08 1.89 0.28 76 1008.1
20260506173455 60 357 0.0 0.0 0.08 1.89 0.28 75 1008.1
20260506172935 60 357 0.0 0.0 0.12 1.89 0.28 75 1008.0
20260506172456 60 360 0.0 0.0 0.08 1.85 0.27 75 1008.0
20260506171936 60 1 0.0 0.0 0.08 1.85 0.27 75 1007.8
20260506171441 60 3 0.0 0.0 0.08 1.85 0.27 75 1007.8
20260506170943 60 80 0.0 0.0 0.12 1.85 0.27 75 1007.7
20260506170445 60 34 0.0 0.0 0.12 1.85 0.27 75 1007.6
20260506165947 60 7 0.0 0.0 0.12 1.85 0.27 75 1007.5
20260506165449 60 352 0.0 3.0 0.16 1.85 0.27 74 1007.5
20260506164951 60 15 0.0 3.0 0.12 1.81 0.26 73 1007.5
20260506164454 61 356 0.0 3.0 0.12 1.81 0.26 72 1007.5
20260506164000 61 77 0.0 1.0 0.16 1.81 0.26 72 1007.6
20260506163447 62 88 0.0 0.0 0.16 1.81 0.26 71 1007.4
20260506162507 62 24 0.0 1.0 0.16 1.77 0.25 70 1007.2
20260506162010 63 334 0.0 1.0 0.20 1.77 0.25 69 1007.1
20260506161511 63 62 0.0 0.0 0.24 1.77 0.25 69 1006.8
20260506161014 63 12 0.0 3.0 0.20 1.73 0.24 69 1006.5
20260506160515 63 321 1.0 5.0 0.20 1.73 0.24 70 1006.2
20260506155957 63 348 0.0 5.0 0.16 1.69 0.24 70 1006.2
20260506155501 64 351 0.0 5.0 0.20 1.69 0.24 72 1006.3
20260506155002 64 344 1.0 5.0 0.24 1.69 0.24 72 1006.3
20260506154522 64 327 0.0 3.0 0.24 1.69 0.24 72 1006.3
20260506154003 64 345 0.0 4.0 0.20 1.65 0.23 73 1006.4
20260506153507 64 10 0.0 7.0 0.24 1.65 0.23 74 1006.6
20260506153029 63 208 0.0 8.0 0.24 1.61 0.22 74 1006.6
20260506152512 63 39 2.0 8.0 0.24 1.61 0.22 74 1006.4
20260506152013 64 325 0.0 10.0 0.20 1.57 0.21 73 1006.5
20260506151513 65 360 2.0 7.0 0.20 1.54 0.20 74 1006.4
20260506151015 65 353 1.0 5.0 0.24 1.54 0.20 76 1006.5
20260506150535 65 306 0.0 7.0 0.24 1.54 0.20 76 1006.5
20260506150016 66 331 0.0 7.0 0.24 1.54 0.20 75 1006.5
20260506145457 67 157 0.0 0.0 0.24 1.50 0.20 77 1006.5
20260506145001 67 175 0.0 0.0 0.20 1.46 0.19 76 1006.4
20260506144502 68 101 0.0 0.0 0.24 1.46 0.19 77 1006.3
20260506144006 67 130 0.0 0.0 0.24 1.46 0.19 77 1006.3
20260506143507 67 150 0.0 0.0 0.24 1.42 0.18 77 1006.3
20260506143009 67 133 0.0 0.0 0.24 1.38 0.17 77 1006.4
20260506142529 67 96 0.0 5.0 0.24 1.38 0.17 78 1006.3
20260506142032 67 165 0.0 5.0 0.24 1.38 0.17 77 1006.4
20260506141512 68 186 0.0 8.0 0.24 1.34 0.17 78 1006.4
20260506140958 67 128 2.0 8.0 0.24 1.30 0.16 77 1006.4
20260506140502 67 136 1.0 8.0 0.24 1.30 0.16 78 1006.4
20260506140003 66 162 0.0 0.0 0.24 1.30 0.16 79 1006.4
20260506135504 66 186 0.0 5.0 0.20 1.26 0.15 80 1006.6
20260506135009 66 175 1.0 5.0 0.24 1.26 0.15 80 1006.6
20260506134510 67 159 0.0 5.0 0.20 1.22 0.14 81 1006.7
20260506134014 66 166 0.0 0.0 0.24 1.22 0.14 80 1006.7
20260506133458 66 107 0.0 4.0 0.20 1.18 0.13 80 1006.9
20260506133021 66 107 0.0 6.0 0.16 1.14 0.13 79 1006.9
20260506132520 67 175 0.0 8.0 0.16 1.14 0.13 79 1007.0
20260506132005 67 143 0.0 7.0 0.16 1.10 0.12 80 1007.0
20260506131505 66 154 0.0 3.0 0.16 1.10 0.12 81 1007.0
20260506131007 66 169 0.0 9.0 0.12 1.06 0.11 80 1007.3
20260506130511 66 186 1.0 5.0 0.12 1.06 0.11 81 1007.3
20260506130012 66 122 0.0 2.0 0.12 1.06 0.11 81 1007.2
20260506125513 66 90 0.0 2.0 0.16 1.06 0.11 81 1007.1
20260506124958 65 98 0.0 8.0 0.12 1.02 0.10 81 1007.2
20260506124459 65 185 1.0 8.0 0.12 1.02 0.10 81 1007.1
20260506124001 65 144 0.0 8.0 0.08 0.98 0.09 82 1007.1
20260506123502 65 132 0.0 8.0 0.08 0.98 0.09 83 1007.1
20260506123004 64 148 1.0 8.0 0.08 0.98 0.09 84 1007.2
20260506122505 64 148 0.0 9.0 0.04 0.94 0.09 84 1007.3
20260506122006 64 158 0.0 9.0 0.04 0.94 0.09 83 1007.3
20260506121507 64 148 0.0 6.0 0.04 0.94 0.09 83 1007.3
20260506121029 64 175 0.0 6.0 0.08 0.94 0.09 83 1007.4
20260506120529 64 179 0.0 3.0 0.08 0.94 0.09 83 1007.4
20260506120008 64 102 0.0 3.0 0.08 0.94 0.09 84 1007.3
20260506115512 64 108 0.0 3.0 0.04 0.91 0.08 84 1007.4
20260506115014 64 100 0.0 14.0 0.04 0.91 0.08 84 1007.6
20260506114455 64 106 0.0 6.0 0.04 0.91 0.08 84 1007.6
20260506114001 64 175 0.0 8.0 0.08 0.91 0.08 84 1007.6
20260506113501 64 125 1.0 8.0 0.08 0.91 0.08 85 1007.7
20260506113002 64 100 0.0 2.0 0.08 0.91 0.08 86 1007.8
20260506112523 64 144 0.0 8.0 0.08 0.91 0.08 88 1007.7
20260506112006 63 150 0.0 8.0 0.08 0.91 0.08 88 1007.8
20260506111506 63 137 0.0 2.0 0.08 0.91 0.08 89 1007.9
20260506111007 62 165 0.0 2.0 0.04 0.87 0.07 89 1007.7
20260506110507 62 107 0.0 0.0 0.04 0.87 0.07 89 1007.8
20260506110012 62 96 0.0 0.0 0.04 0.87 0.07 89 1007.9
20260506105512 62 210 0.0 5.0 0.08 0.94 0.07 90 1008.0
20260506105017 62 163 0.0 5.0 0.08 0.94 0.07 91 1008.0
20260506104518 62 130 1.0 5.0 0.08 0.94 0.07 92 1008.1
20260506103959 61 68 0.0 5.0 0.04 0.91 0.06 92 1008.0
20260506103500 61 29 0.0 0.0 0.04 0.91 0.06 93 1008.1
20260506103022 61 147 0.0 6.0 0.04 0.91 0.06 94 1008.1
20260506102501 61 86 0.0 6.0 0.04 0.91 0.06 94 1008.1
20260506102002 61 147 0.0 5.0 0.04 0.91 0.06 94 1008.1
20260506101502 60 107 1.0 7.0 0.04 0.91 0.06 94 1008.1
20260506101004 60 167 0.0 9.0 0.04 0.91 0.06 95 1008.0
20260506100505 60 134 1.0 9.0 0.04 0.91 0.06 95 1008.1
20260506100007 60 38 1.0 4.0 0.04 0.91 0.06 96 1008.1
20260506095507 59 100 0.0 0.0 0.00 0.91 0.06 96 1008.1
20260506095009 0 0.0 0.0 0.00 0.91 0.06 1008.1
20260506094515 0 0.0 0.0 0.00 0.91 0.06 1008.1
20260506094016 0 0.0 0.0 0.00 0.91 0.06 1008.1
20260506093013 0 0.0 0.0 0.00 0.91 0.06 1008.1
20260506092534 0 0.0 0.0 0.00 0.91 0.06 1008.0
20260506092013 0 0.0 0.0 0.00 0.91 0.06 1008.0
20260506091516 0 0.0 0.0 0.00 0.91 0.06 1008.0
20260506091017 0 0.0 0.0 0.00 0.91 0.06 1008.0
20260506090518 0 0.0 0.0 0.00 0.91 0.06 1008.1
20260506085959 0 0.0 0.0 0.00 0.91 0.06 1008.0
20260506085524 0 0.0 0.0 0.00 0.94 0.06 1007.9
20260506085011 0 0.0 0.0 0.00 0.94 0.06 1007.9
20260506084459 0 0.0 0.0 0.00 0.94 0.06 1007.8
20260506084006 0 0.0 0.0 0.00 0.94 0.06 1007.6
20260506083508 0 0.0 0.0 0.00 0.94 0.06 1008.0
20260506083013 0 0.0 0.0 0.00 0.94 0.06 1008.4
20260506082514 0 0.0 0.0 0.00 0.94 0.06 1008.7
20260506082035 0 0.0 0.0 0.00 0.94 0.06 1008.8
20260506081536 0 0.0 0.0 0.00 0.94 0.06 1008.9
20260506080511 0 0.0 0.0 0.00 0.94 0.06 1008.7
20260506073008 0 0.0 0.0 0.00 1.18 0.06 1008.3
20260506072508 0 0.0 0.0 0.00 1.18 0.06 1008.3
20260506072009 0 0.0 0.0 0.00 1.18 0.06 1008.2
20260506071510 0 0.0 0.0 0.00 1.18 0.06 1008.2
20260506071011 0 0.0 0.0 0.00 1.18 0.06 1008.1
20260506070512 0 0.0 0.0 0.00 1.18 0.06 1008.1
20260506062501 0 0.0 0.0 0.00 1.61 0.06 1008.5
20260506062021 0 0.0 0.0 0.00 1.61 0.06 1008.7
20260506061501 0 0.0 0.0 0.00 1.61 0.06 1008.5
20260506060459 0 0.0 0.0 0.00 1.61 0.06 1008.7
20260506051005 0 0.0 0.0 0.00 2.09 0.06 1008.5
20260506050505 0 0.0 0.0 0.00 2.09 0.06 1008.5
20260506045000 56 156 0.0 0.0 0.04 2.09 0.06 97 1008.7
20260506044501 56 157 0.0 0.0 0.04 2.09 0.06 96 1008.9
20260506044006 56 144 0.0 0.0 0.04 2.09 0.06 96 1009.0
20260506043506 56 135 0.0 0.0 0.04 2.09 0.06 96 1009.1
20260506043008 56 150 0.0 0.0 0.04 2.09 0.06 96 1009.2
20260506042528 56 157 0.0 0.0 0.04 2.09 0.06 96 1009.2
20260506042009 56 150 0.0 0.0 0.04 2.09 0.06 96 1009.2
20260506041509 56 161 0.0 0.0 0.04 2.09 0.06 96 1009.3
20260506041011 56 165 0.0 0.0 0.04 2.09 0.06 96 1009.4
20260506040511 56 169 0.0 0.0 0.04 2.09 0.06 96 1009.4
20260506040013 56 143 0.0 0.0 0.04 2.09 0.06 96 1009.4
20260506035518 56 146 0.0 0.0 0.04 2.09 0.06 96 1009.5
20260506035000 56 146 0.0 0.0 0.00 2.05 0.05 96 1009.6
20260506034500 56 150 0.0 0.0 0.00 2.05 0.05 96 1009.5
20260506034021 56 150 0.0 0.0 0.04 2.05 0.05 96 1009.5
20260506033500 56 158 0.0 0.0 0.04 2.05 0.05 96 1009.4
20260506033005 56 144 0.0 0.0 0.04 2.05 0.05 96 1009.3
20260506032526 56 148 0.0 0.0 0.04 2.05 0.05 96 1009.4
20260506032007 56 148 0.0 0.0 0.04 2.05 0.05 96 1009.4
20260506031507 56 148 0.0 0.0 0.04 2.05 0.05 96 1009.4
20260506031029 56 163 0.0 0.0 0.04 2.05 0.05 96 1009.5
20260506030529 56 165 0.0 0.0 0.04 2.05 0.05 96 1009.6
20260506030009 56 165 0.0 0.0 0.04 2.05 0.05 96 1009.8
20260506025509 56 49 0.0 0.0 0.04 2.05 0.05 96 1009.6
20260506025014 56 157 0.0 0.0 0.04 2.05 0.05 96 1010.0
20260506024459 56 112 0.0 0.0 0.00 2.01 0.04 96 1010.2
20260506024005 56 112 0.0 0.0 0.00 2.01 0.04 96 1010.3
20260506023508 56 111 0.0 0.0 0.00 2.01 0.04 96 1010.3
20260506023010 56 96 0.0 0.0 0.00 2.01 0.04 96 1010.3
20260506022510 56 95 0.0 0.0 0.00 2.01 0.04 96 1010.3
20260506022011 56 86 0.0 0.0 0.00 2.01 0.04 96 1010.2
20260506021511 56 85 0.0 0.0 0.00 2.01 0.04 96 1010.4
20260506021013 56 154 0.0 0.0 0.00 2.01 0.04 96 1010.5
20260506020534 56 154 0.0 0.0 0.00 2.01 0.04 96 1010.5
20260506020034 56 46 0.0 0.0 0.04 2.01 0.04 96 1010.5
20260506015514 56 46 0.0 0.0 0.04 2.01 0.04 96 1010.6
20260506015000 56 46 0.0 0.0 0.04 2.01 0.04 96 1010.6
20260506014504 56 46 0.0 0.0 0.04 2.01 0.04 96 1010.6
20260506014006 56 46 0.0 0.0 0.04 2.01 0.04 96 1010.5
20260506013506 56 46 0.0 0.0 0.04 2.01 0.04 96 1010.4
20260506013012 56 160 0.0 0.0 0.04 2.01 0.04 96 1010.4
20260506012512 56 167 0.0 0.0 0.04 2.01 0.04 96 1010.4
20260506012033 56 167 0.0 0.0 0.04 2.01 0.04 96 1010.4
20260506011513 56 168 0.0 0.0 0.08 2.01 0.04 96 1010.5
20260506011015 56 168 0.0 0.0 0.08 2.01 0.04 96 1010.5
20260506010455 56 81 0.0 0.0 0.08 2.01 0.04 96 1010.5
20260506010021 56 81 0.0 0.0 0.04 1.97 0.03 96 1010.4
20260506005501 56 82 0.0 0.0 0.04 1.97 0.03 96 1010.4
20260506005002 56 140 0.0 0.0 0.04 1.97 0.03 96 1010.5
20260506004523 56 143 0.0 0.0 0.04 1.97 0.03 96 1010.7
20260506004006 56 110 0.0 0.0 0.04 1.97 0.03 96 1010.9
20260506003506 57 110 0.0 0.0 0.04 1.97 0.03 96 1010.9
20260506003009 57 136 0.0 0.0 0.04 1.97 0.03 96 1011.1
20260506002509 57 136 0.0 0.0 0.04 1.97 0.03 96 1010.9
20260506002011 57 137 0.0 0.0 0.04 1.97 0.03 96 1011.1
20260506001518 57 142 0.0 0.0 0.00 1.93 0.02 96 1011.2
20260506001000 57 142 0.0 0.0 0.00 1.93 0.02 96 1011.2
20260506000501 57 143 0.0 0.0 0.00 1.93 0.02 96 1011.3
20260506000002 57 157 0.0 0.0 0.04 1.93 0.02 96 1011.3
20260505235503 57 157 0.0 0.0 0.04 1.93 0.02 96 1011.4
20260505235005 57 157 0.0 0.0 0.04 1.93 0.02 96 1011.4
20260505234525 57 157 0.0 0.0 0.04 1.93 0.02 96 1011.4
20260505234006 57 157 0.0 0.0 0.04 1.93 0.02 96 1011.5
20260505233506 57 157 0.0 0.0 0.04 1.93 0.02 96 1011.5
20260505233007 57 164 0.0 0.0 0.08 1.93 0.02 96 1011.6
20260505232507 57 165 0.0 0.0 0.08 1.93 0.02 95 1011.8
20260505232009 57 164 0.0 0.0 0.08 1.93 0.02 95 1011.7
20260505231530 57 164 0.0 0.0 0.08 1.93 0.02 95 1011.7
20260505230001 57 80 0.0 0.0 0.08 1.89 0.02 95 1011.6
20260505225040 57 80 0.0 0.0 0.08 1.89 0.02 95 1011.8